Weather in Voronovka

Russia / Tomsk District     56°49′36″N   83°27′46″E
temp.,
°C
wind,
m/s
gust,
m/s
humid.,
%
clouds,
%
prec.,
mm/h
press.,
hPa
HPBL,
m
6 may, thu
thu601:00+10sw2875100 0.1 1011160
04:00+9sw247875 0.0 101074
07:00+9ssw257916 0.0 1010103
10:00+16s36535 0.0 1008472
13:00+21s57382 0.0 10061152
16:00+23s58301 0.0 10041764
19:00+22s4939100 0.0 1002492
22:00+17s41356100 0.0 1001261
7 may, fri
fri701:00+14ssw3117299 0.0 1000191
04:00+11nw51378100 0.0 1003614
07:00+10wnw41078100 0.0 1006599
10:00+13wnw58485 0.0 10071399
13:00+15w693695 0.0 10082552
16:00+16w6103198 0.0 10082867
19:00+14wnw5114282 0.0 10112508
22:00+9wnw49545 0.0 1014347
8 may, sat
sat801:00+6wsw26685 0.0 1016114
04:00+6wsw413672 0.0 1016342
07:00+7sw4126127 0.0 1015332
10:00+10wsw41258100 0.0 1015698
13:00+15w6135587 0.0 10141919
16:00+15wnw61554100 0.4 10132311
19:00+15wnw59528 0.4 10142051
22:00+8nne48665 0.0 1017336
9 may, sun
sun901:00+4nnw310705 0.0 1019444
04:00+2nnw258032 0.0 1020116
07:00+3n247631 0.0 1022168
10:00+8nne22515 0.0 1022918
13:00+12ne22385 0.0 10221346
16:00+14ne12345 0.0 10211649
19:00+14ne2237100 0.0 10211707
22:00+9ene2258100 0.0 102121
10 may, mon
mon1001:00+7e39708 0.0 1021230
04:00+5e277815 0.0 1021160
07:00+6ene267196 0.0 1021193
10:00+11ene46498 0.0 1020922
13:00+13ene454174 0.0 10191916
16:00+14ne453791 0.0 10172155
19:00+12ene5750100 0.0 10171105
22:00+8ne396199 0.0 1017277